<?xml version='1.0' encoding='UTF-8'?>
<gpx xmlns="http://www.topografix.com/GPX/1/1" creator="www.balnam.be" version="1.1" xmlns:xsi="http://www.w3.org/2001/XMLSchema-instance" xsi:schemaLocation="http://www.topografix.com/GPX/1/1 http://www.topografix.com/GPX/1/1/gpx.xsd">
<trk>
<name>nsfbg1</name>
<cmt>d</cmt>
<desc>Boignée Chemin n°1 Chemin de Fleurus</desc>
<link href="https://chemins.be/boignee/chemin/1"/><trkseg>
<trkpt lat="50.491267" lon="4.611834"><time>2026-05-04T17:02:58Z</time></trkpt>
<trkpt lat="50.491016" lon="4.615736"><time>2026-05-04T17:12:58Z</time></trkpt>
</trkseg></trk>
<trk>
<name>nsfbg1</name>
<cmt>s</cmt>
<desc>Boignée Chemin n°1 Chemin de Fleurus</desc>
<link href="https://chemins.be/boignee/chemin/1"/><trkseg>
<trkpt lat="50.491016" lon="4.615736"><time>2026-05-04T17:12:58Z</time></trkpt>
<trkpt lat="50.490868" lon="4.618061"><time>2026-05-04T17:22:58Z</time></trkpt>
</trkseg></trk>
<trk>
<name>nsfbg1</name>
<cmt>v</cmt>
<desc>Boignée Chemin n°1 Chemin de Fleurus</desc>
<link href="https://chemins.be/boignee/chemin/1"/><trkseg>
<trkpt lat="50.490868" lon="4.618061"><time>2026-05-04T17:22:58Z</time></trkpt>
<trkpt lat="50.490576" lon="4.620004"><time>2026-05-04T17:32:58Z</time></trkpt>
<trkpt lat="50.490814" lon="4.621837"><time>2026-05-04T17:42:58Z</time></trkpt>
</trkseg></trk>
<trk>
<name>nsfbg1</name>
<cmt>d</cmt>
<desc>Boignée Chemin n°1 Chemin de Fleurus</desc>
<link href="https://chemins.be/boignee/chemin/1"/><trkseg>
<trkpt lat="50.490814" lon="4.621837"><time>2026-05-04T17:42:58Z</time></trkpt>
<trkpt lat="50.491035" lon="4.623572"><time>2026-05-04T17:52:58Z</time></trkpt>
</trkseg></trk>
<trk>
<name>nsfbg1</name>
<cmt>v</cmt>
<desc>Boignée Chemin n°1 Chemin de Fleurus</desc>
<link href="https://chemins.be/boignee/chemin/1"/><trkseg>
<trkpt lat="50.491035" lon="4.623572"><time>2026-05-04T17:52:58Z</time></trkpt>
<trkpt lat="50.490853" lon="4.624881"><time>2026-05-04T18:02:58Z</time></trkpt>
<trkpt lat="50.490607" lon="4.626134"><time>2026-05-04T18:12:58Z</time></trkpt>
</trkseg>
</trk>
<trk>
<name>nsfbg10</name>
<cmt>v</cmt>
<desc>Boignée Chemin n°10 </desc>
<link href="https://chemins.be/boignee/chemin/10"/><trkseg>
<trkpt lat="50.500088" lon="4.615389"><time>2026-05-04T17:02:58Z</time></trkpt>
<trkpt lat="50.499983" lon="4.618320"><time>2026-05-04T17:12:58Z</time></trkpt>
<trkpt lat="50.499905" lon="4.621153"><time>2026-05-04T17:22:58Z</time></trkpt>
</trkseg>
</trk>
<trk>
<name>nsfbg11</name>
<cmt>r</cmt>
<desc>Boignée Chemin n°11 Rue de la Montagne / Rue Piconnette</desc>
<link href="https://chemins.be/boignee/chemin/11"/><trkseg>
<trkpt lat="50.501683" lon="4.613776"><time>2026-05-04T17:02:58Z</time></trkpt>
<trkpt lat="50.502177" lon="4.613976"><time>2026-05-04T17:12:58Z</time></trkpt>
<trkpt lat="50.502608" lon="4.614021"><time>2026-05-04T17:22:58Z</time></trkpt>
<trkpt lat="50.503472" lon="4.614011"><time>2026-05-04T17:32:58Z</time></trkpt>
<trkpt lat="50.503772" lon="4.612506"><time>2026-05-04T17:42:58Z</time></trkpt>
<trkpt lat="50.504249" lon="4.611731"><time>2026-05-04T17:52:58Z</time></trkpt>
</trkseg>
</trk>
<trk>
<name>nsfbg12</name>
<cmt>r</cmt>
<desc>Boignée Chemin n°12 Rue Maccara</desc>
<link href="https://chemins.be/boignee/chemin/12"/><trkseg>
<trkpt lat="50.499463" lon="4.609268"><time>2026-05-04T17:02:58Z</time></trkpt>
<trkpt lat="50.499430" lon="4.607887"><time>2026-05-04T17:12:58Z</time></trkpt>
<trkpt lat="50.499621" lon="4.606549"><time>2026-05-04T17:22:58Z</time></trkpt>
<trkpt lat="50.501043" lon="4.605696"><time>2026-05-04T17:32:58Z</time></trkpt>
</trkseg></trk>
<trk>
<name>nsfbg12</name>
<cmt>s</cmt>
<desc>Boignée Chemin n°12 Rue Maccara</desc>
<link href="https://chemins.be/boignee/chemin/12"/><trkseg>
<trkpt lat="50.501043" lon="4.605696"><time>2026-05-04T17:32:58Z</time></trkpt>
<trkpt lat="50.501493" lon="4.605501"><time>2026-05-04T17:42:58Z</time></trkpt>
<trkpt lat="50.501656" lon="4.605163"><time>2026-05-04T17:52:58Z</time></trkpt>
</trkseg>
</trk>
<trk>
<name>nsfbg12bis</name>
<cmt>v</cmt>
<desc>Boignée Chemin n°12bis </desc>
<link href="https://chemins.be/boignee/chemin/12bis"/><trkseg>
<trkpt lat="50.498492" lon="4.595817"><time>2026-05-04T17:02:58Z</time></trkpt>
<trkpt lat="50.499077" lon="4.595538"><time>2026-05-04T17:12:58Z</time></trkpt>
<trkpt lat="50.499833" lon="4.595020"><time>2026-05-04T17:22:58Z</time></trkpt>
<trkpt lat="50.500516" lon="4.595079"><time>2026-05-04T17:32:58Z</time></trkpt>
<trkpt lat="50.501682" lon="4.596438"><time>2026-05-04T17:42:58Z</time></trkpt>
</trkseg>
</trk>
<trk>
<name>nsfbg13</name>
<cmt>r</cmt>
<desc>Boignée Chemin n°13 Rue Pichelin</desc>
<link href="https://chemins.be/boignee/chemin/13"/><trkseg>
<trkpt lat="50.502605" lon="4.607240"><time>2026-05-04T17:02:58Z</time></trkpt>
<trkpt lat="50.503046" lon="4.606679"><time>2026-05-04T17:12:58Z</time></trkpt>
</trkseg>
</trk>
<trk>
<name>nsfbg14</name>
<cmt>r</cmt>
<desc>Boignée Chemin n°14 Rue Dallose</desc>
<link href="https://chemins.be/boignee/chemin/14"/><trkseg>
<trkpt lat="50.501227" lon="4.612519"><time>2026-05-04T17:02:58Z</time></trkpt>
<trkpt lat="50.500776" lon="4.613292"><time>2026-05-04T17:12:58Z</time></trkpt>
<trkpt lat="50.500423" lon="4.614164"><time>2026-05-04T17:22:58Z</time></trkpt>
</trkseg>
</trk>
<trk>
<name>nsfbg15</name>
<cmt>r</cmt>
<desc>Boignée Chemin n°15 Rue du Moulin Libouton</desc>
<link href="https://chemins.be/boignee/chemin/15"/><trkseg>
<trkpt lat="50.502700" lon="4.608735"><time>2026-05-04T17:02:58Z</time></trkpt>
<trkpt lat="50.503067" lon="4.609780"><time>2026-05-04T17:12:58Z</time></trkpt>
<trkpt lat="50.503038" lon="4.610597"><time>2026-05-04T17:22:58Z</time></trkpt>
<trkpt lat="50.502716" lon="4.613965"><time>2026-05-04T17:32:58Z</time></trkpt>
</trkseg>
</trk>
<trk>
<name>nsfbg16</name>
<cmt>r</cmt>
<desc>Boignée Chemin n°16 Rue Fustroy</desc>
<link href="https://chemins.be/boignee/chemin/16"/><trkseg>
<trkpt lat="50.502140" lon="4.614526"><time>2026-05-04T17:02:58Z</time></trkpt>
<trkpt lat="50.501858" lon="4.615891"><time>2026-05-04T17:12:58Z</time></trkpt>
<trkpt lat="50.502001" lon="4.616245"><time>2026-05-04T17:22:58Z</time></trkpt>
<trkpt lat="50.502423" lon="4.616670"><time>2026-05-04T17:32:58Z</time></trkpt>
<trkpt lat="50.502628" lon="4.617502"><time>2026-05-04T17:42:58Z</time></trkpt>
<trkpt lat="50.503093" lon="4.618492"><time>2026-05-04T17:52:58Z</time></trkpt>
</trkseg>
</trk>
<trk>
<name>nsfbg17</name>
<cmt>r</cmt>
<desc>Boignée Chemin n°17 Rue Try Mascaude</desc>
<link href="https://chemins.be/boignee/chemin/17"/><trkseg>
<trkpt lat="50.501975" lon="4.607477"><time>2026-05-04T17:02:58Z</time></trkpt>
<trkpt lat="50.500489" lon="4.608611"><time>2026-05-04T17:12:58Z</time></trkpt>
<trkpt lat="50.500353" lon="4.609315"><time>2026-05-04T17:22:58Z</time></trkpt>
</trkseg>
</trk>
<trk>
<name>nsfbg18</name>
<cmt>s</cmt>
<desc>Boignée Chemin n°18 </desc>
<link href="https://chemins.be/boignee/chemin/18"/><trkseg>
<trkpt lat="50.501743" lon="4.611014"><time>2026-05-04T17:02:58Z</time></trkpt>
<trkpt lat="50.501993" lon="4.611452"><time>2026-05-04T17:12:58Z</time></trkpt>
<trkpt lat="50.502550" lon="4.611793"><time>2026-05-04T17:22:58Z</time></trkpt>
<trkpt lat="50.502504" lon="4.612371"><time>2026-05-04T17:32:58Z</time></trkpt>
<trkpt lat="50.502539" lon="4.612667"><time>2026-05-04T17:42:58Z</time></trkpt>
<trkpt lat="50.502593" lon="4.612977"><time>2026-05-04T17:52:58Z</time></trkpt>
<trkpt lat="50.502591" lon="4.613964"><time>2026-05-04T18:02:58Z</time></trkpt>
</trkseg>
</trk>
<trk>
<name>nsfbg18bis</name>
<cmt>r</cmt>
<desc>Boignée Chemin n°18bis Rue de la Ferme</desc>
<link href="https://chemins.be/boignee/chemin/18bis"/><trkseg>
<trkpt lat="50.500334" lon="4.614178"><time>2026-05-04T17:02:58Z</time></trkpt>
<trkpt lat="50.499751" lon="4.613160"><time>2026-05-04T17:12:58Z</time></trkpt>
<trkpt lat="50.500020" lon="4.609553"><time>2026-05-04T17:22:58Z</time></trkpt>
</trkseg>
</trk>
<trk>
<name>nsfbg19</name>
<cmt>r</cmt>
<desc>Boignée Chemin n°19 Rue Piconnette</desc>
<link href="https://chemins.be/boignee/chemin/19"/><trkseg>
<trkpt lat="50.503700" lon="4.616282"><time>2026-05-04T17:02:58Z</time></trkpt>
<trkpt lat="50.503879" lon="4.617072"><time>2026-05-04T17:12:58Z</time></trkpt>
<trkpt lat="50.503968" lon="4.617509"><time>2026-05-04T17:22:58Z</time></trkpt>
</trkseg>
</trk>
<trk>
<name>nsfbg19bis</name>
<cmt>r</cmt>
<desc>Boignée Chemin n°19bis Rue du Trou</desc>
<link href="https://chemins.be/boignee/chemin/19bis"/><trkseg>
<trkpt lat="50.505213" lon="4.623479"><time>2026-05-04T17:02:58Z</time></trkpt>
<trkpt lat="50.504738" lon="4.622997"><time>2026-05-04T17:12:58Z</time></trkpt>
<trkpt lat="50.503947" lon="4.623049"><time>2026-05-04T17:22:58Z</time></trkpt>
</trkseg>
</trk>
<trk>
<name>nsfbg20</name>
<cmt>v</cmt>
<desc>Boignée Sentier n°20 </desc>
<link href="https://chemins.be/boignee/sentier/20"/><trkseg>
<trkpt lat="50.500917" lon="4.614688"><time>2026-05-04T17:02:58Z</time></trkpt>
<trkpt lat="50.501302" lon="4.615198"><time>2026-05-04T17:12:58Z</time></trkpt>
<trkpt lat="50.501832" lon="4.615525"><time>2026-05-04T17:22:58Z</time></trkpt>
</trkseg>
</trk>
<trk>
<name>nsfbg21</name>
<cmt>b</cmt>
<desc>Boignée Sentier n°21 </desc>
<link href="https://chemins.be/boignee/sentier/21"/><trkseg>
<trkpt lat="50.501290" lon="4.612604"><time>2026-05-04T17:02:58Z</time></trkpt>
<trkpt lat="50.501829" lon="4.612720"><time>2026-05-04T17:12:58Z</time></trkpt>
<trkpt lat="50.502242" lon="4.612947"><time>2026-05-04T17:22:58Z</time></trkpt>
<trkpt lat="50.502629" lon="4.612992"><time>2026-05-04T17:32:58Z</time></trkpt>
</trkseg>
</trk>
<trk>
<name>nsfbg22</name>
<cmt>r</cmt>
<desc>Boignée Sentier n°22 Rue Fustroy</desc>
<link href="https://chemins.be/boignee/sentier/22"/><trkseg>
<trkpt lat="50.503030" lon="4.618519"><time>2026-05-04T17:02:58Z</time></trkpt>
<trkpt lat="50.503484" lon="4.619525"><time>2026-05-04T17:12:58Z</time></trkpt>
<trkpt lat="50.503584" lon="4.620143"><time>2026-05-04T17:22:58Z</time></trkpt>
</trkseg>
</trk>
<trk>
<name>nsfbg23</name>
<cmt>b</cmt>
<desc>Boignée Sentier n°23 </desc>
<link href="https://chemins.be/boignee/sentier/23"/><trkseg>
<trkpt lat="50.502172" lon="4.620686"><time>2026-05-04T17:02:58Z</time></trkpt>
<trkpt lat="50.501860" lon="4.619373"><time>2026-05-04T17:12:58Z</time></trkpt>
<trkpt lat="50.501744" lon="4.618823"><time>2026-05-04T17:22:58Z</time></trkpt>
<trkpt lat="50.501647" lon="4.618075"><time>2026-05-04T17:32:58Z</time></trkpt>
<trkpt lat="50.501378" lon="4.617524"><time>2026-05-04T17:42:58Z</time></trkpt>
<trkpt lat="50.500824" lon="4.616281"><time>2026-05-04T17:52:58Z</time></trkpt>
<trkpt lat="50.500447" lon="4.615757"><time>2026-05-04T18:02:58Z</time></trkpt>
<trkpt lat="50.500107" lon="4.615234"><time>2026-05-04T18:12:58Z</time></trkpt>
</trkseg>
</trk>
<trk>
<name>nsfbg24</name>
<cmt>b</cmt>
<desc>Boignée Sentier n°24 </desc>
<link href="https://chemins.be/boignee/sentier/24"/><trkseg>
<trkpt lat="50.499984" lon="4.609468"><time>2026-05-04T17:02:58Z</time></trkpt>
<trkpt lat="50.500095" lon="4.607622"><time>2026-05-04T17:12:58Z</time></trkpt>
<trkpt lat="50.500161" lon="4.606227"><time>2026-05-04T17:22:58Z</time></trkpt>
</trkseg>
</trk>
<trk>
<name>nsfbg25</name>
<cmt>s</cmt>
<desc>Boignée Sentier n°25 Rue Fanchon</desc>
<link href="https://chemins.be/boignee/sentier/25"/><trkseg>
<trkpt lat="50.500334" lon="4.609569"><time>2026-05-04T17:02:58Z</time></trkpt>
<trkpt lat="50.501248" lon="4.610884"><time>2026-05-04T17:12:58Z</time></trkpt>
</trkseg>
</trk>
<trk>
<name>nsfbg26</name>
<cmt>d</cmt>
<desc>Boignée Sentier n°26 </desc>
<link href="https://chemins.be/boignee/sentier/26"/><trkseg>
<trkpt lat="50.499697" lon="4.613117"><time>2026-05-04T17:02:58Z</time></trkpt>
<trkpt lat="50.499312" lon="4.612566"><time>2026-05-04T17:12:58Z</time></trkpt>
<trkpt lat="50.497573" lon="4.610090"><time>2026-05-04T17:22:58Z</time></trkpt>
</trkseg>
</trk>
<trk>
<name>nsfbg27</name>
<cmt>d</cmt>
<desc>Boignée Sentier n°27 </desc>
<link href="https://chemins.be/boignee/sentier/27"/><trkseg>
<trkpt lat="50.496586" lon="4.617597"><time>2026-05-04T17:02:58Z</time></trkpt>
<trkpt lat="50.497318" lon="4.615811"><time>2026-05-04T17:12:58Z</time></trkpt>
<trkpt lat="50.499507" lon="4.613793"><time>2026-05-04T17:22:58Z</time></trkpt>
</trkseg>
</trk>
<trk>
<name>nsfbg28</name>
<cmt>v</cmt>
<desc>Boignée Sentier n°28 </desc>
<link href="https://chemins.be/boignee/sentier/28"/><trkseg>
<trkpt lat="50.487297" lon="4.622833"><time>2026-05-04T17:02:58Z</time></trkpt>
<trkpt lat="50.488320" lon="4.623867"><time>2026-05-04T17:12:58Z</time></trkpt>
<trkpt lat="50.488705" lon="4.624391"><time>2026-05-04T17:22:58Z</time></trkpt>
<trkpt lat="50.489108" lon="4.625083"><time>2026-05-04T17:32:58Z</time></trkpt>
</trkseg></trk>
<trk>
<name>nsfbg28</name>
<cmt>d</cmt>
<desc>Boignée Sentier n°28 </desc>
<link href="https://chemins.be/boignee/sentier/28"/><trkseg>
<trkpt lat="50.489108" lon="4.625083"><time>2026-05-04T17:32:58Z</time></trkpt>
<trkpt lat="50.489619" lon="4.625720"><time>2026-05-04T17:42:58Z</time></trkpt>
</trkseg>
</trk>
<trk>
<name>nsfbg29</name>
<cmt>v</cmt>
<desc>Boignée Sentier n°29 </desc>
<link href="https://chemins.be/boignee/sentier/29"/><trkseg>
<trkpt lat="50.503526" lon="4.613983"><time>2026-05-04T17:02:58Z</time></trkpt>
<trkpt lat="50.503904" lon="4.613562"><time>2026-05-04T17:12:58Z</time></trkpt>
<trkpt lat="50.504327" lon="4.613170"><time>2026-05-04T17:22:58Z</time></trkpt>
</trkseg></trk>
<trk>
<name>nsfbg29</name>
<cmt>d</cmt>
<desc>Boignée Sentier n°29 </desc>
<link href="https://chemins.be/boignee/sentier/29"/><trkseg>
<trkpt lat="50.504327" lon="4.613170"><time>2026-05-04T17:22:58Z</time></trkpt>
<trkpt lat="50.505723" lon="4.612063"><time>2026-05-04T17:32:58Z</time></trkpt>
<trkpt lat="50.506425" lon="4.611771"><time>2026-05-04T17:42:58Z</time></trkpt>
</trkseg>
</trk>
<trk>
<name>nsfbg3</name>
<cmt>r</cmt>
<desc>Boignée Chemin n°3 Chemin d'Auvelais</desc>
<link href="https://chemins.be/boignee/chemin/3"/><trkseg>
<trkpt lat="50.502032" lon="4.614342"><time>2026-05-04T17:02:58Z</time></trkpt>
<trkpt lat="50.501611" lon="4.613621"><time>2026-05-04T17:12:58Z</time></trkpt>
<trkpt lat="50.501290" lon="4.612477"><time>2026-05-04T17:22:58Z</time></trkpt>
<trkpt lat="50.501293" lon="4.610941"><time>2026-05-04T17:32:58Z</time></trkpt>
<trkpt lat="50.500964" lon="4.609530"><time>2026-05-04T17:42:58Z</time></trkpt>
<trkpt lat="50.500244" lon="4.609526"><time>2026-05-04T17:52:58Z</time></trkpt>
<trkpt lat="50.498941" lon="4.609322"><time>2026-05-04T18:02:58Z</time></trkpt>
<trkpt lat="50.497457" lon="4.609949"><time>2026-05-04T18:12:58Z</time></trkpt>
</trkseg></trk>
<trk>
<name>nsfbg3</name>
<cmt>v</cmt>
<desc>Boignée Chemin n°3 Chemin d'Auvelais</desc>
<link href="https://chemins.be/boignee/chemin/3"/><trkseg>
<trkpt lat="50.497457" lon="4.609949"><time>2026-05-04T18:12:58Z</time></trkpt>
<trkpt lat="50.496720" lon="4.609776"><time>2026-05-04T18:22:58Z</time></trkpt>
<trkpt lat="50.496010" lon="4.609575"><time>2026-05-04T18:32:58Z</time></trkpt>
<trkpt lat="50.495058" lon="4.608837"><time>2026-05-04T18:42:58Z</time></trkpt>
<trkpt lat="50.493903" lon="4.606844"><time>2026-05-04T18:52:58Z</time></trkpt>
<trkpt lat="50.493141" lon="4.605688"><time>2026-05-04T19:02:58Z</time></trkpt>
</trkseg>
</trk>
<trk>
<name>nsfbg30</name>
<cmt>v</cmt>
<desc>Boignée Sentier n°30 </desc>
<link href="https://chemins.be/boignee/sentier/30"/><trkseg>
<trkpt lat="50.502461" lon="4.606887"><time>2026-05-04T17:02:58Z</time></trkpt>
<trkpt lat="50.502597" lon="4.606366"><time>2026-05-04T17:12:58Z</time></trkpt>
<trkpt lat="50.502535" lon="4.606295"><time>2026-05-04T17:22:58Z</time></trkpt>
<trkpt lat="50.502796" lon="4.605958"><time>2026-05-04T17:32:58Z</time></trkpt>
<trkpt lat="50.502867" lon="4.605920"><time>2026-05-04T17:42:58Z</time></trkpt>
</trkseg>
</trk>
<trk>
<name>nsfbg31</name>
<cmt>s</cmt>
<desc>Boignée Chemin n°31 </desc>
<link href="https://chemins.be/boignee/chemin/31"/><trkseg>
<trkpt lat="50.502521" lon="4.608382"><time>2026-05-04T17:02:58Z</time></trkpt>
<trkpt lat="50.502493" lon="4.608917"><time>2026-05-04T17:12:58Z</time></trkpt>
</trkseg>
</trk>
<trk>
<name>nsfbg33</name>
<cmt>s</cmt>
<desc>Boignée Sentier n°33 Rue des Pages</desc>
<link href="https://chemins.be/boignee/sentier/33"/><trkseg>
<trkpt lat="50.498348" lon="4.595788"><time>2026-05-04T17:02:58Z</time></trkpt>
<trkpt lat="50.499234" lon="4.598047"><time>2026-05-04T17:12:58Z</time></trkpt>
</trkseg>
</trk>
<trk>
<name>nsfbg4</name>
<cmt>v</cmt>
<desc>Boignée Chemin n°4 </desc>
<link href="https://chemins.be/boignee/chemin/4"/><trkseg>
<trkpt lat="50.491322" lon="4.611679"><time>2026-05-04T17:02:58Z</time></trkpt>
<trkpt lat="50.493805" lon="4.619218"><time>2026-05-04T17:12:58Z</time></trkpt>
<trkpt lat="50.493866" lon="4.620162"><time>2026-05-04T17:22:58Z</time></trkpt>
<trkpt lat="50.495218" lon="4.622805"><time>2026-05-04T17:32:58Z</time></trkpt>
</trkseg>
</trk>
<trk>
<name>nsfbg5</name>
<cmt>v</cmt>
<desc>Boignée Chemin n°5 Sentier du Trou Machot / Rue Grand Vau / Rue Dallosse / Rue Dallose / Rue des Ecoles</desc>
<link href="https://chemins.be/boignee/chemin/5"/><trkseg>
<trkpt lat="50.485211" lon="4.635081"><time>2026-05-04T17:02:58Z</time></trkpt>
<trkpt lat="50.486130" lon="4.634184"><time>2026-05-04T17:12:58Z</time></trkpt>
<trkpt lat="50.486967" lon="4.633653"><time>2026-05-04T17:22:58Z</time></trkpt>
<trkpt lat="50.487050" lon="4.632963"><time>2026-05-04T17:32:58Z</time></trkpt>
<trkpt lat="50.488349" lon="4.630772"><time>2026-05-04T17:42:58Z</time></trkpt>
<trkpt lat="50.488206" lon="4.630476"><time>2026-05-04T17:52:58Z</time></trkpt>
<trkpt lat="50.489009" lon="4.629325"><time>2026-05-04T18:02:58Z</time></trkpt>
<trkpt lat="50.488726" lon="4.627167"><time>2026-05-04T18:12:58Z</time></trkpt>
<trkpt lat="50.488818" lon="4.626308"><time>2026-05-04T18:22:58Z</time></trkpt>
<trkpt lat="50.488792" lon="4.625688"><time>2026-05-04T18:32:58Z</time></trkpt>
<trkpt lat="50.489153" lon="4.625154"><time>2026-05-04T18:42:58Z</time></trkpt>
<trkpt lat="50.489694" lon="4.624354"><time>2026-05-04T18:52:58Z</time></trkpt>
<trkpt lat="50.490571" lon="4.622202"><time>2026-05-04T19:02:58Z</time></trkpt>
<trkpt lat="50.490796" lon="4.621851"><time>2026-05-04T19:12:58Z</time></trkpt>
</trkseg></trk>
<trk>
<name>nsfbg5</name>
<cmt>s</cmt>
<desc>Boignée Chemin n°5 Sentier du Trou Machot / Rue Grand Vau / Rue Dallosse / Rue Dallose / Rue des Ecoles</desc>
<link href="https://chemins.be/boignee/chemin/5"/><trkseg>
<trkpt lat="50.490796" lon="4.621851"><time>2026-05-04T19:12:58Z</time></trkpt>
<trkpt lat="50.491806" lon="4.620800"><time>2026-05-04T19:22:58Z</time></trkpt>
</trkseg></trk>
<trk>
<name>nsfbg5</name>
<cmt>v</cmt>
<desc>Boignée Chemin n°5 Sentier du Trou Machot / Rue Grand Vau / Rue Dallosse / Rue Dallose / Rue des Ecoles</desc>
<link href="https://chemins.be/boignee/chemin/5"/><trkseg>
<trkpt lat="50.491806" lon="4.620800"><time>2026-05-04T19:22:58Z</time></trkpt>
<trkpt lat="50.493850" lon="4.619274"><time>2026-05-04T19:32:58Z</time></trkpt>
<trkpt lat="50.498467" lon="4.616607"><time>2026-05-04T19:42:58Z</time></trkpt>
<trkpt lat="50.500052" lon="4.615304"><time>2026-05-04T19:52:58Z</time></trkpt>
<trkpt lat="50.500406" lon="4.614122"><time>2026-05-04T20:02:58Z</time></trkpt>
</trkseg></trk>
<trk>
<name>nsfbg5</name>
<cmt>r</cmt>
<desc>Boignée Chemin n°5 Sentier du Trou Machot / Rue Grand Vau / Rue Dallosse / Rue Dallose / Rue des Ecoles</desc>
<link href="https://chemins.be/boignee/chemin/5"/><trkseg>
<trkpt lat="50.500406" lon="4.614122"><time>2026-05-04T20:02:58Z</time></trkpt>
<trkpt lat="50.500989" lon="4.614604"><time>2026-05-04T20:12:58Z</time></trkpt>
<trkpt lat="50.501781" lon="4.614143"><time>2026-05-04T20:22:58Z</time></trkpt>
</trkseg>
</trk>
<trk>
<name>nsfbg6</name>
<cmt>r</cmt>
<desc>Boignée Chemin n°6 Rue Piconnette</desc>
<link href="https://chemins.be/boignee/chemin/6"/><trkseg>
<trkpt lat="50.503453" lon="4.614053"><time>2026-05-04T17:02:58Z</time></trkpt>
<trkpt lat="50.503532" lon="4.615379"><time>2026-05-04T17:12:58Z</time></trkpt>
<trkpt lat="50.503700" lon="4.616253"><time>2026-05-04T17:22:58Z</time></trkpt>
<trkpt lat="50.504222" lon="4.616186"><time>2026-05-04T17:32:58Z</time></trkpt>
<trkpt lat="50.505496" lon="4.617250"><time>2026-05-04T17:42:58Z</time></trkpt>
</trkseg>
</trk>
<trk>
<name>nsfbg7</name>
<cmt>r</cmt>
<desc>Boignée Chemin n°7 Rue des Dottiats</desc>
<link href="https://chemins.be/boignee/chemin/7"/><trkseg>
<trkpt lat="50.503478" lon="4.615406"><time>2026-05-04T17:02:58Z</time></trkpt>
<trkpt lat="50.503340" lon="4.616773"><time>2026-05-04T17:12:58Z</time></trkpt>
<trkpt lat="50.503660" lon="4.618199"><time>2026-05-04T17:22:58Z</time></trkpt>
<trkpt lat="50.504502" lon="4.619740"><time>2026-05-04T17:32:58Z</time></trkpt>
<trkpt lat="50.505366" lon="4.623480"><time>2026-05-04T17:42:58Z</time></trkpt>
</trkseg>
</trk>
<trk>
<name>nsfbg8</name>
<cmt>r</cmt>
<desc>Boignée Chemin n°8 Rue du Moulin Libouton / ? / Rue Try Donie</desc>
<link href="https://chemins.be/boignee/chemin/8"/><trkseg>
<trkpt lat="50.497973" lon="4.594630"><time>2026-05-04T17:02:58Z</time></trkpt>
<trkpt lat="50.499279" lon="4.598019"><time>2026-05-04T17:12:58Z</time></trkpt>
<trkpt lat="50.500115" lon="4.602224"><time>2026-05-04T17:22:58Z</time></trkpt>
<trkpt lat="50.501060" lon="4.606302"><time>2026-05-04T17:32:58Z</time></trkpt>
<trkpt lat="50.502244" lon="4.607647"><time>2026-05-04T17:42:58Z</time></trkpt>
<trkpt lat="50.502718" lon="4.608791"><time>2026-05-04T17:52:58Z</time></trkpt>
</trkseg></trk>
<trk>
<name>nsfbg8</name>
<cmt>s</cmt>
<desc>Boignée Chemin n°8 Rue du Moulin Libouton / ? / Rue Try Donie</desc>
<link href="https://chemins.be/boignee/chemin/8"/><trkseg>
<trkpt lat="50.502718" lon="4.608791"><time>2026-05-04T17:52:58Z</time></trkpt>
<trkpt lat="50.502349" lon="4.609128"><time>2026-05-04T18:02:58Z</time></trkpt>
</trkseg></trk>
<trk>
<name>nsfbg8</name>
<cmt>r</cmt>
<desc>Boignée Chemin n°8 Rue du Moulin Libouton / ? / Rue Try Donie</desc>
<link href="https://chemins.be/boignee/chemin/8"/><trkseg>
<trkpt lat="50.502349" lon="4.609128"><time>2026-05-04T18:02:58Z</time></trkpt>
<trkpt lat="50.502238" lon="4.610593"><time>2026-05-04T18:12:58Z</time></trkpt>
<trkpt lat="50.501401" lon="4.611266"><time>2026-05-04T18:22:58Z</time></trkpt>
</trkseg>
</trk>
<trk>
<name>nsfbg9</name>
<cmt>r</cmt>
<desc>Boignée Chemin n°9 Rue de Velaine</desc>
<link href="https://chemins.be/boignee/chemin/9"/><trkseg>
<trkpt lat="50.497403" lon="4.609991"><time>2026-05-04T17:02:58Z</time></trkpt>
<trkpt lat="50.496512" lon="4.610310"><time>2026-05-04T17:12:58Z</time></trkpt>
<trkpt lat="50.494678" lon="4.610061"><time>2026-05-04T17:22:58Z</time></trkpt>
<trkpt lat="50.493248" lon="4.610364"><time>2026-05-04T17:32:58Z</time></trkpt>
<trkpt lat="50.492646" lon="4.610107"><time>2026-05-04T17:42:58Z</time></trkpt>
</trkseg>
</trk>
<trk>
<name>nsfbgi1</name>
<cmt>q</cmt>
<desc>Boignée Chemin n°i1 </desc>
<link href="https://chemins.be/boignee/chemin/i1"/><trkseg>
<trkpt lat="50.503388" lon="4.619409"><time>2026-05-04T17:02:58Z</time></trkpt>
<trkpt lat="50.503604" lon="4.619185"><time>2026-05-04T17:12:58Z</time></trkpt>
<trkpt lat="50.503650" lon="4.618932"><time>2026-05-04T17:22:58Z</time></trkpt>
<trkpt lat="50.503821" lon="4.618538"><time>2026-05-04T17:32:58Z</time></trkpt>
</trkseg>
</trk>
<trk>
<name>nsfbgi2</name>
<cmt>v</cmt>
<desc>Boignée Chemin n°i2 Rue Grand Vau</desc>
<link href="https://chemins.be/boignee/chemin/i2"/><trkseg>
<trkpt lat="50.489531" lon="4.612205"><time>2026-05-04T17:02:58Z</time></trkpt>
<trkpt lat="50.490290" lon="4.614985"><time>2026-05-04T17:12:58Z</time></trkpt>
<trkpt lat="50.490895" lon="4.617722"><time>2026-05-04T17:22:58Z</time></trkpt>
</trkseg>
</trk>
</gpx>